Weather History for Hobbs, NM

Change the Weather History Date:

Tuesday, February 19, 2013

  Actual Average Record
Temperature  
Mean Temperature 42 °F -  
Max Temperature 53 °F 59 °F 77 °F (2001)
Min Temperature 30 °F 33 °F 18 °F (1955)
Degree Days  
Heating Degree Days 24    
Moisture  
Dew Point 28 °F    
Average Humidity 65    
Maximum Humidity 100    
Minimum Humidity 24    
Precipitation  
Precipitation 0.07 in - - ()
Sea Level Pressure  
Sea Level Pressure 30.07 in    
Wind  
Wind Speed 8 mph (SE)    
Max Wind Speed 23 mph    
Max Gust Speed 29 mph    
Visibility 8 miles    
Events Rain    
Averages and records for this station are not official NWS values.
T = Trace of Precipitation, MM = Missing Value Source: NWS Daily Summary

Daily Weather History Graph

Daily Weather History Graph

Search for Another Location

Airport:

Trip Planner

Search our weather history database for the weather conditions in past years. The results will help you decide how hot, cold, wet, or windy it might be!

Date:

Astronomy

Feb. 19, 2013 Rise Set
Actual Time 6:31 AM MST 5:42 PM MST
Civil Twilight 6:06 AM MST 6:07 PM MST
Nautical Twilight 5:37 AM MST 6:36 PM MST
Astronomical Twilight 5:09 AM MST 7:04 PM MST
Moon 12:25 PM MST (2/19) 1:55 AM MST (2/19)
Length of Visible Light 12h 00m
Length of Day
11h 10m
Waxing Gibbous, 68% of the Moon is Illuminated
Feb 19
Waxing Gibbous
Feb 25
Full
Mar 4
Last Quarter
Mar 11
New
Mar 19
First Quarter

Hourly Weather History & Observations

Time (MST) Temp. Windchill Dew Point Humidity Pressure Visibility Wind Dir Wind Speed Gust Speed Precip Events Conditions
12:15 AM 39.2 °F 35.0 °F 14.0 °F 36% 30.11 in 10.0 mi East 5.8 mph - N/A   Clear
12:35 AM 39.2 °F 35.9 °F 14.0 °F 36% 30.12 in 10.0 mi East 4.6 mph - N/A   Clear
12:55 AM 39.2 °F - 15.8 °F 39% 30.13 in 10.0 mi Calm Calm - N/A   Clear
1:15 AM 37.4 °F - 15.8 °F 41% 30.14 in 10.0 mi Calm Calm - N/A   Clear
1:35 AM 37.4 °F - 15.8 °F 41% 30.14 in 10.0 mi Calm Calm - N/A   Clear
1:55 AM 35.6 °F - 15.8 °F 44% 30.13 in 10.0 mi Calm Calm - N/A   Clear
2:15 AM 35.6 °F - 15.8 °F 44% 30.14 in 10.0 mi Calm Calm - N/A   Clear
2:35 AM 35.6 °F - 15.8 °F 44% 30.14 in 10.0 mi Calm Calm - N/A   Clear
2:55 AM 35.6 °F - 17.6 °F 48% 30.14 in 10.0 mi Calm Calm - N/A   Clear
3:15 AM 35.6 °F - 17.6 °F 48% 30.15 in 10.0 mi Calm Calm - N/A   Clear
3:35 AM 35.6 °F - 17.6 °F 48% 30.15 in 10.0 mi Calm Calm - N/A   Clear
3:55 AM 35.6 °F - 17.6 °F 48% 30.15 in 10.0 mi Calm Calm - N/A   Clear
5:50 AM 32.0 °F - 17.6 °F 55% 30.15 in 10.0 mi Calm Calm - N/A   Clear
6:50 AM 30.2 °F - 17.6 °F 60% 30.15 in 10.0 mi Calm Calm - N/A   Clear
8:50 AM 44.6 °F 37.2 °F 21.2 °F 39% 30.17 in 10.0 mi ESE 17.3 mph 23.0 mph N/A   Clear
9:50 AM 50.0 °F - 19.4 °F 30% 30.15 in 10.0 mi ESE 23.0 mph 28.8 mph N/A   Clear
10:50 AM 53.6 °F - 17.6 °F 24% 30.13 in 10.0 mi ESE 23.0 mph 27.6 mph N/A   Clear
11:50 AM 53.6 °F - 19.4 °F 26% 30.08 in 10.0 mi ESE 20.7 mph 27.6 mph N/A   Clear
12:50 PM 51.8 °F - 19.4 °F 28% 30.05 in 10.0 mi SE 17.3 mph 28.8 mph N/A   Mostly Cloudy
1:50 PM 51.8 °F - 21.2 °F 30% 30.01 in 10.0 mi SE 19.6 mph 27.6 mph N/A   Clear
2:50 PM 53.6 °F - 23.0 °F 30% 29.99 in 10.0 mi SE 18.4 mph 26.5 mph N/A   Clear
4:25 PM 50.0 °F - 28.4 °F 43% 29.99 in 9.0 mi SE 13.8 mph 23.0 mph N/A   Overcast
5:35 PM 44.6 °F 38.1 °F 35.6 °F 71% 30.01 in 8.0 mi SE 13.8 mph - N/A Rain Light Rain
5:55 PM 44.6 °F 37.8 °F 37.4 °F 76% 30.02 in 10.0 mi SE 15.0 mph - N/A   Overcast
6:15 PM 44.6 °F 36.4 °F 37.4 °F 76% 30.03 in 8.0 mi SSE 20.7 mph 24.2 mph N/A Rain Light Rain
6:35 PM 41.0 °F 33.5 °F 39.2 °F 93% 30.04 in 5.0 mi SSE 13.8 mph - N/A Rain Light Rain
6:55 PM 41.0 °F 33.1 °F 39.2 °F 93% 30.04 in 6.0 mi SSE 15.0 mph - N/A Rain Light Rain
7:15 PM 41.0 °F 32.2 °F 41.0 °F 100% 30.03 in 7.0 mi SE 18.4 mph - N/A Rain Light Rain
7:55 PM 41.0 °F 33.5 °F 41.0 °F 100% 30.04 in 5.0 mi SSE 13.8 mph - N/A Rain Light Rain
8:15 PM 41.0 °F 33.5 °F 41.0 °F 100% 30.03 in 5.0 mi SSE 13.8 mph - N/A Rain Light Rain
8:35 PM 41.0 °F 34.7 °F 39.2 °F 93% 30.02 in 5.0 mi SSE 10.4 mph - N/A Rain Light Rain
8:55 PM 41.0 °F 34.3 °F 41.0 °F 100% 30.02 in 7.0 mi SSE 11.5 mph - N/A Rain Light Rain
9:15 PM 41.0 °F 34.7 °F 41.0 °F 100% 30.02 in 8.0 mi SSE 10.4 mph - N/A Rain Light Rain
9:35 PM 41.0 °F 34.3 °F 41.0 °F 100% 30.02 in 5.0 mi SSE 11.5 mph - N/A Rain Light Rain
9:55 PM 41.0 °F 33.9 °F 41.0 °F 100% 30.01 in 5.0 mi SSE 12.7 mph - 0.01 in Rain Light Rain
10:15 PM 41.0 °F 33.1 °F 41.0 °F 100% 30.01 in 4.0 mi SSE 15.0 mph - N/A Rain Light Rain
10:35 PM 41.0 °F 32.8 °F 41.0 °F 100% 30.00 in 4.0 mi SE 16.1 mph - 0.02 in Rain Light Rain
10:55 PM 41.0 °F 34.3 °F 41.0 °F 100% 29.97 in 4.0 mi SE 11.5 mph - 0.04 in Rain Light Rain
11:15 PM 41.0 °F 34.3 °F 41.0 °F 100% 29.98 in 5.0 mi SSE 11.5 mph - N/A Rain Light Rain
11:35 PM 41.0 °F 34.7 °F 41.0 °F 100% 29.98 in 5.0 mi SE 10.4 mph - 0.01 in Rain Light Rain
11:55 PM 41.0 °F 33.9 °F 41.0 °F 100% 29.97 in 7.0 mi ESE 12.7 mph - 0.02 in Rain Light Rain